{"data":{"norad_id":68158,"intl_designator":"2026-049S","name":"STARLINK-37069","alt_names":[],"object_type":"PAYLOAD","status":"ACTIVE","operator":null,"country":"US","launch_date":"2026-03-13","launch_site_code":"AFWTR","launch_vehicle":null,"mission":null,"orbit_class":"UNKNOWN","rcs_meters":null,"size_class":null,"mass_kg":null,"dimensions":null,"purposes":["comms"],"wikipedia_slug":null,"has_3d_model":false,"image_url":null,"decayed_at":null,"tle_current":{"epoch":"2026-09-19T19:42:21.904704Z","epoch_age_seconds":114479,"freshness":"FRESH","line1":"1 68158U 26049S   26262.82108686  .00009582  00000+0  29871-3 0  9999","line2":"2 68158  97.2855 282.7356 0001282  94.9624 265.1765 15.33449232 29397","mean_motion":15.33449232,"eccentricity":0.0001282,"inclination_deg":97.2855,"raan_deg":282.7356,"arg_perigee_deg":94.9624,"mean_anomaly_deg":265.1765,"bstar":0.00029871,"rev_number":2939,"period_min":93.905945495299,"perigee_km":464.65322486841,"apogee_km":466.4079412367,"semimajor_km":6843.6675830526,"source":"CELESTRAK","updated_at":"2026-09-20T09:00:43.795463Z"}}}